Regional Weather Roundup
Issued by NWS

Home | Current Version | Previous Version | Text Only | Print | Product List | Glossary On
Versions: 1 2 3 4 5 6 7 8 9 10 11 12 13 14 15 16 17 18 19 20 21 22 23 24 25 26 27 28 29 30 31 32 33 34 35 36 37 38 39 40 41 42 43 44 45 46 47 48 49 50
000
ASMX46 KSGX 291911
RWRMX

MEXICAN WEATHER ROUNDUP
NATIONAL WEATHER SERVICE SAN DIEGO CA
1200 PM PDT SAT AUG 29 2015

BAJA CALIFORNIA

CITY           SKY/WX    TMP DP  RH WIND       PRES   REMARKS
ENSENADA NW      N/A     78  32  19 W3        29.88S
LA PAZ         MOSUNNY   99  63  30 SW5       29.84  HX 100
LORETO         MOSUNNY   97  75  49 S9        29.81F HX 109
MEXICALI       SUNNY    108  46  12 W3        29.80  HX 103
S.J. DEL CABO  MOSUNNY   97  68  38 SE12      29.86F HX 101
TIJUANA        SUNNY     88  61  40 W12       29.93S

NORTHWESTERN MEXICO

CITY           SKY/WX    TMP DP  RH WIND       PRES   REMARKS
CHIHUAHUA      PTSUNNY   82  48  30 N8        30.18
CULIACAN       PTSUNNY   95  79  59 CALM      29.87  HX 112
GUAYMAS          N/A    N/A N/A N/A MISG        N/A
HERMOSILLO     MOSUNNY  100  68  34 CALM      29.89  HX 106
JUAREZ         MOSUNNY   86  61  42 CALM      30.11
LOS MOCHIS     MOSUNNY   95  73  49 SW12      29.85F HX 105
OBREGON        MOSUNNY   99  70  39 S2        29.82  HX 105

NORTHEASTERN MEXICO

CITY           SKY/WX    TMP DP  RH WIND       PRES   REMARKS
MATAMOROS      PTSUNNY   93  72  49 E12       30.01  HX 100
MONCLOVA       SUNNY     91  61  35 CALM      30.04
MONTERREY      MOSUNNY   90  61  37 E7        30.00F
NUEVO LAREDO   SUNNY     93  68  43 CALM      29.99  HX  97
PIEDRAS NEGRAS SUNNY     93  68  43 SE7       30.03F HX  97
REYNOSA        MOSUNNY   90  59  35 SE6       29.98
SALTILLO       SUNNY     82  63  51 N9        30.21F
TORREON        SUNNY     90  45  20 CALM      30.14F
VICTORIA       MOSUNNY   93  63  36 E9        29.99

WESTERN MEXICO

CITY           SKY/WX    TMP DP  RH WIND       PRES   REMARKS
AGUASCALIENTES SUNNY     79  37  22 CALM      30.28
COLIMA         MOSUNNY   84  73  70 SW7       29.98F
DURANGO        SUNNY     82  23  11 N5        30.26
GUADALAJARA    SUNNY     79  45  29 CALM      30.19
MANZANILLO     MOSUNNY   90  77  66 SW12      29.82S HX 102
MAZATLAN       MOSUNNY   88  79  74 S13       29.84F HX 102
PTO. VALLARTA  MOSUNNY   90  81  74 SW6       29.84F HX 108
TEPIC          PTSUNNY   86  72  62 NW5       30.03F
URUAPAN        PTSUNNY   72  61  68 S12       30.18S
ZACATECAS      SUNNY     77  45  31 CALM      30.29F

CENTRAL MEXICO

CITY           SKY/WX    TMP DP  RH WIND       PRES   REMARKS
CUERNAVACA     PTSUNNY   79  59  50 S7        30.14F
LEON           SUNNY     77  46  33 SE6       30.30F
MEXICO CITY    PTSUNNY   72  48  43 E16       30.33F
MORELIA        MOSUNNY   75  57  53 N9        30.24F
POZA RICA      PTSUNNY   86  75  70 SE5       30.01F HX  95
PUEBLA         CLOUDY    72  50  46 E5        30.32F
QUERETARO      MOSUNNY   72  54  53 E7        30.31F
S. LUIS POTOSI SUNNY     75  48  38 CALM      30.26F
TAMPICO        MOSUNNY   88  72  58 E9        29.98F
TOLUCA         PTSUNNY   68  50  52 SW3       30.38F
VERACRUZ       MOSUNNY   86  77  74 N14       29.96F HX  97

SOUTHERN MEXICO

CITY           SKY/WX    TMP DP  RH WIND       PRES   REMARKS
ACAPULCO       MOSUNNY   90  77  66 SW10      29.85F HX 102
B. DE HUATULCO MOSUNNY   90  75  62 W12       29.90  HX 100
MINATITLAN     PTSUNNY   84  68  58 N12       29.90
OAXACA         CLOUDY    77  57  50 SE3       30.19F
PTO. ESCONDIDO PTSUNNY   88  73  62 S8        29.96  HX  96
TAPACHULA      MOSUNNY   90  81  74 SW12      29.83F HX 108
TUX. GUTIERREZ MOSUNNY   86  66  51 NW9       29.93F
VILLAHERMOSA   PTSUNNY   86  73  66 SE8       29.94F
ZIHUATANEJO    MOSUNNY   93  77  59 SW12      29.86S HX 107

YUCATAN PENINSULA

CITY           SKY/WX    TMP DP  RH WIND       PRES   REMARKS
CAMPECHE       PTSUNNY   91  77  62 E12       29.92F HX 105
CANCUN         MOSUNNY   91  77  62 E8        29.94F HX 105
CHETUMAL       MOSUNNY   91  77  62 CALM      29.92  HX 105
C. DEL CARMEN  MOSUNNY   86  84  94 E7        29.94  HX 108
COZUMEL        MOSUNNY   86  79  79 N10       29.94F HX  99
MERIDA         PTSUNNY   91  75  59 E5        29.95F HX 102

$$




USA.gov is the U.S. government's official web portal to all federal, state and local government web resources and services.